This is the latest recevied weather packets stored in our database for station/object EA8EE-7. If no packets are shown the sender has not sent any weather packets the latest 10 day(s).
| Time | Temp. | Humidity | Pressure | Rain* | Wind** | Luminosity | Snow |
|---|---|---|---|---|---|---|---|
| 1778229783 | 32.22° C | 37% | 1000.1 hPa | - | - | - | - |
| 1778229184 | 32.22° C | 38% | 1001.4 hPa | - | - | - | - |
| 1778228583 | 32.22° C | 38% | 1002 hPa | - | - | - | - |
| 1778227983 | 31.67° C | 39% | 1004.8 hPa | - | - | - | - |
| 1778227381 | 31.11° C | 40% | 1012 hPa | - | - | - | - |
| 1778226781 | 30.56° C | 42% | 1002.3 hPa | - | - | - | - |
| 1778226181 | 30° C | 43% | 1003.6 hPa | - | - | - | - |
| 1778135458 | 31.11° C | 42% | 1011.5 hPa | - | - | - | - |
| 1778134858 | 31.11° C | 42% | 1002.9 hPa | - | - | - | - |
| 1778134258 | 31.11° C | 42% | 1010.2 hPa | - | - | - | - |
| 1778133657 | 31.11° C | 42% | 1010.2 hPa | - | - | - | - |
| 1778133057 | 31.11° C | 42% | 1010.7 hPa | - | - | - | - |
| 1778132457 | 31.11° C | 42% | 1009.4 hPa | - | - | - | - |
| 1778131857 | 31.11° C | 42% | 1011.9 hPa | - | - | - | - |
| 1778131257 | 31.11° C | 42% | 1006.1 hPa | - | - | - | - |
| 1778130657 | 31.11° C | 42% | 1013.6 hPa | - | - | - | - |
| 1778130057 | 31.67° C | 41% | 1013.5 hPa | - | - | - | - |
| 1778129457 | 31.67° C | 41% | 1014.9 hPa | - | - | - | - |
| 1778128857 | 31.67° C | 41% | 1014.8 hPa | - | - | - | - |
| 1778128257 | 32.22° C | 41% | 1012.7 hPa | - | - | - | - |
| 1778127657 | 32.22° C | 41% | 1014.5 hPa | - | - | - | - |
| 1778127057 | 31.67° C | 41% | 1013.4 hPa | - | - | - | - |
| 1778126457 | 31.67° C | 41% | 1002.9 hPa | - | - | - | - |
| 1778125857 | 31.67° C | 41% | 1015 hPa | - | - | - | - |
| 1778125257 | 31.67° C | 41% | 1007.4 hPa | - | - | - | - |
* Rain since midnight (hover to see other rain measurements)
** Current wind speed in m/s (hover to see current wind gust speed)